Time,TemperatureF,DewpointF,PressureIn,WindDirection,WindDirectionDegrees,WindSpeedMPH,WindSpeedGustMPH,Humidity,HourlyPrecipIn,Conditions,Clouds,dailyrainin,SolarRadiationWatts/m^2,SoftwareType,DateUTC
2013-08-07 00:02:00,56.0,54.0,-100.00,WNW,283,1.0,4.0,94,0.00,,,0.00,0.000000,,2013-08-07 06:02:00,
2013-08-07 00:11:00,56.0,54.0,-100.00,WNW,283,1.0,4.0,94,0.00,,,0.00,0.000000,,2013-08-07 06:11:00,
2013-08-07 00:22:00,56.0,54.0,-100.00,WNW,283,1.0,4.0,94,0.00,,,0.00,0.000000,,2013-08-07 06:22:00,
2013-08-07 00:52:00,55.0,53.0,-100.00,NW,310,2.0,5.0,92,0.00,,,0.00,0.000000,,2013-08-07 06:52:00,
2013-08-07 01:01:00,55.0,53.0,-100.00,NW,310,2.0,5.0,92,0.00,,,0.00,0.000000,,2013-08-07 07:01:00,
2013-08-07 01:12:00,55.0,53.0,-100.00,NW,310,2.0,5.0,92,0.00,,,0.00,0.000000,,2013-08-07 07:12:00,
2013-08-07 01:22:00,55.0,53.0,-100.00,NW,310,2.0,5.0,92,0.00,,,0.00,0.000000,,2013-08-07 07:22:00,
2013-08-07 01:52:00,54.0,54.0,-100.00,NW,314,3.0,7.0,99,0.00,,,0.00,0.000000,,2013-08-07 07:52:00,
2013-08-07 02:01:00,54.0,54.0,-100.00,NW,314,3.0,7.0,99,0.00,,,0.00,0.000000,,2013-08-07 08:01:00,
2013-08-07 02:11:00,54.0,54.0,-100.00,NW,314,3.0,7.0,99,0.00,,,0.00,0.000000,,2013-08-07 08:11:00,
2013-08-07 02:22:00,54.0,54.0,-100.00,NW,314,3.0,7.0,99,0.00,,,0.00,0.000000,,2013-08-07 08:22:00,
2013-08-07 02:52:00,55.0,55.0,-100.00,NW,308,1.0,7.0,99,0.00,,,0.00,0.000000,,2013-08-07 08:52:00,
2013-08-07 03:02:00,55.0,55.0,-100.00,NW,308,1.0,7.0,99,0.00,,,0.00,0.000000,,2013-08-07 09:02:00,
2013-08-07 03:11:00,55.0,55.0,-100.00,NW,308,1.0,7.0,99,0.00,,,0.00,0.000000,,2013-08-07 09:11:00,
2013-08-07 03:22:00,55.0,55.0,-100.00,NW,308,1.0,7.0,99,0.00,,,0.00,0.000000,,2013-08-07 09:22:00,
2013-08-07 03:54:00,57.0,56.0,-100.00,North,9,2.0,5.0,97,0.00,,,0.00,0.000000,,2013-08-07 09:54:00,
2013-08-07 04:01:00,57.0,56.0,-100.00,North,9,2.0,5.0,97,0.00,,,0.00,0.000000,,2013-08-07 10:01:00,
2013-08-07 04:11:00,57.0,56.0,-100.00,North,9,2.0,5.0,97,0.00,,,0.00,0.000000,,2013-08-07 10:11:00,
2013-08-07 04:21:00,57.0,56.0,-100.00,North,9,2.0,5.0,97,0.00,,,0.00,0.000000,,2013-08-07 10:21:00,
2013-08-07 04:43:00,55.0,54.0,-100.00,NNW,331,0.0,7.0,97,0.00,,,0.00,0.000000,,2013-08-07 10:43:00,
2013-08-07 04:52:00,55.0,54.0,-100.00,NNW,331,0.0,7.0,97,0.00,,,0.00,0.000000,,2013-08-07 10:52:00,
2013-08-07 05:01:00,55.0,54.0,-100.00,NNW,331,0.0,7.0,97,0.00,,,0.00,0.000000,,2013-08-07 11:01:00,
2013-08-07 05:11:00,55.0,54.0,-100.00,NNW,331,0.0,7.0,97,0.00,,,0.00,0.000000,,2013-08-07 11:11:00,
2013-08-07 05:22:00,55.0,54.0,-100.00,NNW,331,0.0,7.0,97,0.00,,,0.00,0.000000,,2013-08-07 11:22:00,
2013-08-07 05:53:00,56.0,55.0,-100.00,NW,319,2.0,5.0,97,0.00,,,0.00,0.000000,,2013-08-07 11:53:00,
2013-08-07 06:02:00,56.0,55.0,-100.00,NW,319,2.0,5.0,97,0.00,,,0.00,0.000000,,2013-08-07 12:02:00,
2013-08-07 06:11:00,56.0,55.0,-100.00,NW,319,2.0,5.0,97,0.00,,,0.00,0.000000,,2013-08-07 12:11:00,
2013-08-07 06:22:00,56.0,55.0,-100.00,NW,319,2.0,5.0,97,0.00,,,0.00,0.000000,,2013-08-07 12:22:00,
2013-08-07 06:52:00,55.0,54.0,-100.00,NW,325,3.0,6.0,98,0.00,,,0.00,17.000000,,2013-08-07 12:52:00,
2013-08-07 07:02:00,55.0,54.0,-100.00,NW,325,3.0,6.0,98,0.00,,,0.00,17.000000,,2013-08-07 13:02:00,
2013-08-07 07:11:00,55.0,54.0,-100.00,NW,325,3.0,6.0,98,0.00,,,0.00,17.000000,,2013-08-07 13:11:00,
2013-08-07 07:22:00,55.0,54.0,-100.00,NW,325,3.0,6.0,98,0.00,,,0.00,17.000000,,2013-08-07 13:22:00,
2013-08-07 07:44:00,58.0,55.0,-100.00,North,2,3.0,7.0,90,0.00,,,0.00,115.000000,,2013-08-07 13:44:00,
2013-08-07 07:53:00,58.0,55.0,-100.00,North,2,3.0,7.0,90,0.00,,,0.00,115.000000,,2013-08-07 13:53:00,
2013-08-07 08:02:00,58.0,55.0,-100.00,North,2,3.0,7.0,90,0.00,,,0.00,115.000000,,2013-08-07 14:02:00,
2013-08-07 08:11:00,58.0,55.0,-100.00,North,2,3.0,7.0,90,0.00,,,0.00,115.000000,,2013-08-07 14:11:00,
2013-08-07 08:22:00,58.0,55.0,-100.00,North,2,3.0,7.0,90,0.00,,,0.00,115.000000,,2013-08-07 14:22:00,
2013-08-07 08:52:00,58.0,56.0,-100.00,NE,48,4.0,8.0,94,0.00,,,0.00,86.000000,,2013-08-07 14:52:00,
2013-08-07 09:02:00,58.0,56.0,-100.00,NE,48,4.0,8.0,94,0.00,,,0.00,86.000000,,2013-08-07 15:02:00,
2013-08-07 09:12:00,58.0,56.0,-100.00,NE,48,4.0,8.0,94,0.00,,,0.00,86.000000,,2013-08-07 15:12:00,
2013-08-07 09:22:00,58.0,56.0,-100.00,NE,48,4.0,8.0,94,0.00,,,0.00,86.000000,,2013-08-07 15:22:00,
2013-08-07 09:53:00,63.0,56.0,-100.00,NE,45,4.0,9.0,77,0.00,,,0.00,326.000000,,2013-08-07 15:53:00,
2013-08-07 10:02:00,63.0,56.0,-100.00,NE,45,4.0,9.0,77,0.00,,,0.00,326.000000,,2013-08-07 16:02:00,
2013-08-07 10:11:00,63.0,56.0,-100.00,NE,45,4.0,9.0,77,0.00,,,0.00,326.000000,,2013-08-07 16:11:00,
2013-08-07 10:22:00,63.0,56.0,-100.00,NE,45,4.0,9.0,77,0.00,,,0.00,326.000000,,2013-08-07 16:22:00,
2013-08-07 10:53:00,68.0,54.0,-100.00,NE,44,7.0,13.0,62,0.00,,,0.00,737.000000,,2013-08-07 16:53:00,
2013-08-07 11:01:00,68.0,54.0,-100.00,NE,44,7.0,13.0,62,0.00,,,0.00,737.000000,,2013-08-07 17:01:00,
2013-08-07 11:11:00,68.0,54.0,-100.00,NE,44,7.0,13.0,62,0.00,,,0.00,737.000000,,2013-08-07 17:11:00,
2013-08-07 11:22:00,68.0,54.0,-100.00,NE,44,7.0,13.0,62,0.00,,,0.00,737.000000,,2013-08-07 17:22:00,
2013-08-07 11:52:00,69.0,53.0,-100.00,NE,54,5.0,13.0,57,0.00,,,0.00,873.000000,,2013-08-07 17:52:00,
2013-08-07 12:02:00,69.0,53.0,-100.00,NE,54,5.0,13.0,57,0.00,,,0.00,873.000000,,2013-08-07 18:02:00,
2013-08-07 12:11:00,69.0,53.0,-100.00,NE,54,5.0,13.0,57,0.00,,,0.00,873.000000,,2013-08-07 18:11:00,
2013-08-07 12:22:00,69.0,53.0,-100.00,NE,54,5.0,13.0,57,0.00,,,0.00,873.000000,,2013-08-07 18:22:00,
2013-08-07 12:52:00,72.0,53.0,-100.00,NE,55,8.0,14.0,52,0.00,,,0.00,954.000000,,2013-08-07 18:52:00,
2013-08-07 13:01:00,72.0,53.0,-100.00,NE,55,8.0,14.0,52,0.00,,,0.00,954.000000,,2013-08-07 19:01:00,
2013-08-07 13:11:00,72.0,53.0,-100.00,NE,55,8.0,14.0,52,0.00,,,0.00,954.000000,,2013-08-07 19:11:00,
2013-08-07 13:22:00,72.0,53.0,-100.00,NE,55,8.0,14.0,52,0.00,,,0.00,954.000000,,2013-08-07 19:22:00,
2013-08-07 13:52:00,74.0,52.0,-100.00,East,81,4.0,13.0,47,0.00,,,0.00,1026.000000,,2013-08-07 19:52:00,
2013-08-07 14:02:00,74.0,52.0,-100.00,East,81,4.0,13.0,47,0.00,,,0.00,1026.000000,,2013-08-07 20:02:00,
2013-08-07 14:11:00,74.0,52.0,-100.00,East,81,4.0,13.0,47,0.00,,,0.00,1026.000000,,2013-08-07 20:11:00,
2013-08-07 14:22:00,74.0,52.0,-100.00,East,81,4.0,13.0,47,0.00,,,0.00,1026.000000,,2013-08-07 20:22:00,
2013-08-07 14:52:00,77.0,53.0,-100.00,ESE,102,4.0,14.0,43,0.00,,,0.00,986.000000,,2013-08-07 20:52:00,
2013-08-07 15:01:00,77.0,53.0,-100.00,ESE,102,4.0,14.0,43,0.00,,,0.00,986.000000,,2013-08-07 21:01:00,
2013-08-07 15:11:00,77.0,53.0,-100.00,ESE,102,4.0,14.0,43,0.00,,,0.00,986.000000,,2013-08-07 21:11:00,
2013-08-07 15:22:00,77.0,53.0,-100.00,ESE,102,4.0,14.0,43,0.00,,,0.00,986.000000,,2013-08-07 21:22:00,
2013-08-07 15:52:00,75.0,52.0,-100.00,ENE,70,7.0,13.0,44,0.00,,,0.00,785.000000,,2013-08-07 21:52:00,
2013-08-07 16:01:00,75.0,52.0,-100.00,ENE,70,7.0,13.0,44,0.00,,,0.00,785.000000,,2013-08-07 22:01:00,
2013-08-07 16:12:00,75.0,52.0,-100.00,ENE,70,7.0,13.0,44,0.00,,,0.00,785.000000,,2013-08-07 22:12:00,
2013-08-07 16:22:00,75.0,52.0,-100.00,ENE,70,7.0,13.0,44,0.00,,,0.00,785.000000,,2013-08-07 22:22:00,
2013-08-07 16:52:00,75.0,52.0,-100.00,East,87,7.0,14.0,44,0.00,,,0.00,729.000000,,2013-08-07 22:52:00,
2013-08-07 17:01:00,75.0,52.0,-100.00,East,87,7.0,14.0,44,0.00,,,0.00,729.000000,,2013-08-07 23:01:00,
2013-08-07 17:11:00,75.0,52.0,-100.00,East,87,7.0,14.0,44,0.00,,,0.00,729.000000,,2013-08-07 23:11:00,
2013-08-07 17:22:00,75.0,52.0,-100.00,East,87,7.0,14.0,44,0.00,,,0.00,729.000000,,2013-08-07 23:22:00,
2013-08-07 17:52:00,73.0,50.0,-100.00,ENE,66,8.0,17.0,45,0.00,,,-99.99,609.000000,,2013-08-07 23:52:00,
2013-08-07 18:01:00,73.0,50.0,-100.00,ENE,66,8.0,17.0,45,0.00,,,-99.99,609.000000,,2013-08-08 00:01:00,
2013-08-07 18:11:00,73.0,50.0,-100.00,ENE,66,8.0,17.0,45,0.00,,,-99.99,609.000000,,2013-08-08 00:11:00,
2013-08-07 18:22:00,73.0,50.0,-100.00,ENE,66,8.0,17.0,45,0.00,,,-99.99,609.000000,,2013-08-08 00:22:00,
2013-08-07 18:52:00,72.0,50.0,-100.00,NE,48,10.0,16.0,46,0.00,,,0.00,318.000000,,2013-08-08 00:52:00,
2013-08-07 19:02:00,72.0,50.0,-100.00,NE,48,10.0,16.0,46,0.00,,,0.00,318.000000,,2013-08-08 01:02:00,
2013-08-07 19:11:00,72.0,50.0,-100.00,NE,48,10.0,16.0,46,0.00,,,0.00,318.000000,,2013-08-08 01:11:00,
2013-08-07 19:22:00,72.0,50.0,-100.00,NE,48,10.0,16.0,46,0.00,,,0.00,318.000000,,2013-08-08 01:22:00,
2013-08-07 19:52:00,68.0,49.0,-100.00,NE,38,10.0,18.0,50,0.00,,,0.00,151.000000,,2013-08-08 01:52:00,
2013-08-07 20:02:00,68.0,49.0,-100.00,NE,38,10.0,18.0,50,0.00,,,0.00,151.000000,,2013-08-08 02:02:00,
2013-08-07 20:11:00,68.0,49.0,-100.00,NE,38,10.0,18.0,50,0.00,,,0.00,151.000000,,2013-08-08 02:11:00,
2013-08-07 20:22:00,68.0,49.0,-100.00,NE,38,10.0,18.0,50,0.00,,,0.00,151.000000,,2013-08-08 02:22:00,
2013-08-07 20:52:00,63.0,48.0,-100.00,NE,49,5.0,19.0,59,0.00,,,0.00,22.000000,,2013-08-08 02:52:00,
2013-08-07 21:01:00,63.0,48.0,-100.00,NE,49,5.0,19.0,59,0.00,,,0.00,22.000000,,2013-08-08 03:01:00,
2013-08-07 21:12:00,63.0,48.0,-100.00,NE,49,5.0,19.0,59,0.00,,,0.00,22.000000,,2013-08-08 03:12:00,
2013-08-07 21:22:00,63.0,48.0,-100.00,NE,49,5.0,19.0,59,0.00,,,0.00,22.000000,,2013-08-08 03:22:00,
2013-08-07 21:52:00,59.0,46.0,-100.00,ENE,70,3.0,8.0,63,0.00,,,0.00,0.000000,,2013-08-08 03:52:00,
2013-08-07 22:01:00,59.0,46.0,-100.00,ENE,70,3.0,8.0,63,0.00,,,0.00,0.000000,,2013-08-08 04:01:00,
2013-08-07 22:11:00,59.0,46.0,-100.00,ENE,70,3.0,8.0,63,0.00,,,0.00,0.000000,,2013-08-08 04:11:00,
2013-08-07 22:22:00,59.0,46.0,-100.00,ENE,70,3.0,8.0,63,0.00,,,0.00,0.000000,,2013-08-08 04:22:00,
2013-08-07 22:53:00,59.0,48.0,-100.00,ENE,63,4.0,7.0,67,0.00,,,0.00,0.000000,,2013-08-08 04:53:00,
2013-08-07 23:02:00,59.0,48.0,-100.00,ENE,63,4.0,7.0,67,0.00,,,0.00,0.000000,,2013-08-08 05:02:00,
2013-08-07 23:11:00,59.0,48.0,-100.00,ENE,63,4.0,7.0,67,0.00,,,0.00,0.000000,,2013-08-08 05:11:00,
2013-08-07 23:22:00,59.0,48.0,-100.00,ENE,63,4.0,7.0,67,0.00,,,0.00,0.000000,,2013-08-08 05:22:00,
2013-08-07 23:52:00,59.0,49.0,-100.00,East,96,4.0,10.0,69,0.00,,,0.00,0.000000,,2013-08-08 05:52:00,